Location: Fuglau
(48.6333°N, 15.5500°E)
Time: 17:12:54
(UTC+00:00)

STARLINK-53 - Pass Details

Date: 27 February 2020
Orbit: 529 x 531 km, 53.0° (Epoch: 06 April)

Event Time Altitude Azimuth Distance (km) Brightness Sun altitude
Rises 18:01:24 0° 282° (WNW) 2,670 9.0 -14.6°
Reaches altitude 10° 18:03:42 10° 289° (WNW) 1,781 7.5 -15.0°
Maximum altitude 18:07:34 44° 2° (N) 747 4.3 -15.7°
Enters shadow 18:09:27 26° 59° (ENE) 1,083 4.7 -16.0°
